JUGNU

Last updated on Mon Sep 15 2025 00:03:09 GMT+0000 (Coordinated Universal Time)

1 37839U 11058B 25257.10076616 .00000432 00000+0 86330-4 0 9995 2 37839 19.9599 185.5951 0018482 267.2304 119.9083 14.13636678719918
UTC large
Height (km)
Speed (km/s)
/
Latitude / Longitude
Inclination (degrees)
Orbital Period (minutes)
Azimuth
Elevation
Range (km)
Doppler Factor

Next 0 passes for location: London (51.5072 / 0.1276)

Sorry there are no passes over London.